AO-07 1 07530U 74089B 24214.87282307 -.00000015 00000-0 19940-3 0 9996 2 07530 101.9804 209.9517 0012267 359.1646 63.6017 12.53677497275003 UO-11 1 14781U 84021B 24214.51586625 .00002733 00000-0 31126-3 0 9998 2 14781 97.7075 182.4405 0006406 291.9037 68.1498 14.86961590155229 AO-27 1 22825U 93061C 24214.86163830 .00000240 00000-0 10943-3 0 9992 2 22825 98.7857 268.1072 0007486 310.2724 49.7803 14.30533028609415 FO-29 1 24278U 96046B 24214.81430113 .00000021 00000-0 54945-4 0 9996 2 24278 98.5796 143.4864 0351116 70.1229 293.7388 13.53195488380858 NOAA-15 1 25338U 98030A 24214.82472946 .00000405 00000-0 18522-3 0 9996 2 25338 98.5671 240.9956 0010225 184.7075 175.4011 14.26644506363948 GO-32 1 25397U 98043D 24214.90690525 .00000204 00000-0 10890-3 0 9996 2 25397 98.9250 182.3206 0002102 55.7274 304.4102 14.24079002354148 ISS 1 25544U 98067A 24214.85067740 .00019046 00000-0 34645-3 0 9995 2 25544 51.6392 89.0987 0006080 151.0971 209.0355 15.49526079465633 NO-44 1 26931U 01043C 24214.41819343 .00000459 00000-0 20462-3 0 9990 2 26931 67.0488 214.6958 0007755 274.1734 85.8481 14.31291508192429 SO-50 1 27607U 02058C 24214.90560184 .00002570 00000-0 36184-3 0 9992 2 27607 64.5552 80.9977 0025503 87.9483 272.4541 14.79244442163292 CO-55 1 27844U 03031E 24214.50345272 .00000717 00000-0 33561-3 0 9999 2 27844 98.6778 220.9030 0010141 20.7785 339.3804 14.23342650 94232 CO-57 1 27848U 03031J 24214.45558155 .00000686 00000-0 32508-3 0 9998 2 27848 98.6808 221.0749 0010337 36.1375 324.0499 14.22773183 93971 RS-22 1 27939U 03042A 24214.90150205 .00002420 00000-0 41014-3 0 9995 2 27939 98.2956 11.8421 0010780 276.4104 237.8023 14.70179157114999 NOAA-18 1 28654U 05018A 24214.80217887 .00000345 00000-0 20762-3 0 9995 2 28654 98.8732 291.3870 0013156 295.5036 64.4775 14.13267796989702 CO-58 1 28895U 05043F 24214.57163932 .00003276 00000-0 57933-3 0 9991 2 28895 98.2069 350.4842 0015064 210.3954 149.6378 14.68001226 1115 CO-65 1 32785U 08021C 24214.53408967 .00007737 00000-0 66961-3 0 9996 2 32785 97.7579 179.5079 0011521 162.5102 197.6519 14.97380007882337 AAUSAT2 1 32788U 08021F 24214.44229608 .00044666 00000-0 20714-2 0 9999 2 32788 97.5952 194.8926 0005922 49.5719 310.6031 15.19897173885195 CO-66 1 32791U 08021J 24214.56315815 .00012749 00000-0 90310-3 0 9999 2 32791 97.6917 185.5181 0007100 136.8823 223.2961 15.04925705883340 RS-30 1 32953U 08025A 24214.86512730 .00000047 00000-0 26343-3 0 9994 2 32953 82.5000 61.0699 0019771 7.9716 352.1674 12.43144441734803 PRISM 1 33493U 09002B 24214.06441012 .00040252 00000-0 17607-2 0 9990 2 33493 98.2023 265.6309 0012555 98.6675 261.5981 15.21879504845863 NOAA-19 1 33591U 09005A 24214.83093019 .00000316 00000-0 19349-3 0 9990 2 33591 99.0445 271.1072 0014275 159.9463 200.2272 14.13061969798076 SRMSAT 1 37841U 11058D 24213.44753962 .00000612 00000-0 18992-3 0 9991 2 37841 19.9708 249.0812 0011637 220.6292 169.1069 14.11151479660824 RS-40 1 38735U 12041C 24214.82975451 .00000021 00000-0 78175-4 0 9993 2 38735 82.4782 141.4354 0018221 116.3631 243.9322 12.42612578544945 ZACUBE-1 1 39417U 13066B 24214.46407145 .00010944 00000-0 11163-2 0 9996 2 39417 97.7353 169.4383 0050342 13.0991 347.1520 14.89871355578329 Delfi-N3xt 1 39428U 13066N 24214.74429140 .00010332 00000-0 12932-2 0 9994 2 39428 97.8354 131.8966 0097601 301.5770 57.5941 14.79097577573006 GOMX-1 1 39430U 13066Q 24214.90108448 .00003952 00000-0 65310-3 0 9999 2 39430 97.7269 86.5132 0140885 107.2804 254.3871 14.64466565569731 LO-74 1 39440U 13066AA 24214.56729052 .00005621 00000-0 65469-3 0 9992 2 39440 97.8133 157.2748 0070847 124.9460 235.8436 14.83832548575069 AO-73 1 39444U 13066AE 24214.86949135 .00011219 00000-0 10623-2 0 9996 2 39444 97.7204 173.0811 0046770 351.7863 8.2586 14.92952952577515 SPROUT 1 39770U 14029E 24214.12419260 .00939414 00000-0 51537-2 0 9993 2 39770 97.9995 12.3482 0013818 286.6637 73.3109 15.77191736554650 DTUSAT-2 1 40030U 14033W 24214.41516714 .00012723 00000-0 10483-2 0 9993 2 40030 98.0078 168.0775 0009166 22.0842 338.0773 14.99172522549477 EO-80 1 40032U 14033Y 24214.84958561 .00009517 00000-0 78441-3 0 9998 2 40032 98.0079 168.5365 0010248 10.6561 349.4877 14.99235741550032 XW-2C 1 40906U 15049H 24214.87340974 .00042393 00000-0 87173-3 0 9993 2 40906 97.4761 232.9717 0010185 131.3395 228.8732 15.45800318491524 XW-2D 1 40907U 15049J 24214.83763973 .00072973 00000-0 10663-2 0 9994 2 40907 97.4695 236.0070 0009305 124.7780 235.4351 15.55346481491780 LILACSAT-2 1 40908U 15049K 24214.80719146 .00012391 00000-0 46382-3 0 9991 2 40908 97.5237 223.8762 0012323 179.6370 180.4880 15.27376333490451 XW-2B 1 40911U 15049N 24214.82500732 .00067302 00000-0 10207-2 0 9994 2 40911 97.4673 236.0123 0009202 127.7253 232.4836 15.54349745491649 IO-86 1 40931U 15052B 24214.36163490 .00001688 00000-0 14070-3 0 9993 2 40931 6.0012 29.8989 0012848 0.0485 359.9644 14.77963796478157 ChubuSat-2 1 41338U 16012B 24214.07439006 .00008766 00000-0 53565-3 0 9995 2 41338 31.0013 101.7751 0011667 325.5546 34.4335 15.08911249464389 ChubuSat-3 1 41339U 16012C 24214.89605428 .00006946 00000-0 43080-3 0 9998 2 41339 31.0079 95.2612 0011646 337.7785 22.2347 15.08278326464483 Horyu-4 1 41340U 16012D 24214.86540829 .00018638 00000-0 89155-3 0 9994 2 41340 31.0030 37.6098 0009879 71.2549 288.9163 15.17768707465095 Lapan A3 1 41603U 16040E 24214.83106513 .00004821 00000-0 19178-3 0 9999 2 41603 97.1418 226.4947 0010161 304.5686 55.4593 15.25675447450186 Pratham 1 41783U 16059A 24214.48327952 .00001356 00000-0 25977-3 0 9995 2 41783 97.8360 231.6954 0031194 235.3449 124.4813 14.65037925419173 CAS-2T 1 41847U 16066G 24214.84609830 .00002198 00000-0 32642-3 0 9994 2 41847 98.4588 285.8046 0353831 40.0256 322.6443 14.41527604406076 CAS-4B 1 42759U 17034B 24214.77157436 .00023171 00000-0 78522-3 0 9996 2 42759 43.0190 328.5935 0013380 290.6800 69.2618 15.30047738394388 CAS-4A 1 42761U 17034D 24214.76950887 .00023545 00000-0 79499-3 0 9998 2 42761 43.0228 326.9248 0012421 301.3558 58.6079 15.30170084394392 Aalto 1 1 42775U 17036L 24214.85466344 .00251112 00000-0 11855-2 0 9999 2 42775 97.0951 245.4711 0002889 119.3700 240.7859 15.82388957396290 D-SAT 1 42794U 17036AF 24214.59588691 .00011851 00000-0 81213-3 0 9991 2 42794 97.4813 194.8436 0106761 355.7926 4.2390 15.01593653387535 TechnoSat 1 42829U 17042E 24214.84087487 .00005437 00000-0 47614-3 0 9992 2 42829 97.3850 33.3664 0010785 280.3943 79.6064 14.97037367384008 AO-91 1 43017U 17073E 24214.40360845 .00016420 00000-0 99163-3 0 9990 2 43017 97.5722 88.3100 0209016 142.0291 219.5879 14.94256020362416 TianYi 2 1 43155U 18008A 24214.79010232 .00375016 00000-0 20086-2 0 9992 2 43155 97.2259 270.2534 0007907 230.6872 129.3695 15.79272786362053 TianYi 6 1 43158U 18008D 24214.88348544 .00094723 00000-0 14339-2 0 9992 2 43158 97.2536 263.8252 0004990 248.5154 111.5569 15.54329499361553 S-Net D 1 43186U 18014G 24214.46776708 .00007427 00000-0 52458-3 0 9991 2 43186 97.5868 115.5209 0009618 202.8505 157.2295 15.05169137355312 S-Net B 1 43187U 18014H 24214.47025466 .00007631 00000-0 53888-3 0 9996 2 43187 97.5873 115.4763 0010578 199.1825 160.9004 15.05159847355319 S-Net A 1 43188U 18014J 24214.46887557 .00007513 00000-0 53052-3 0 9995 2 43188 97.5879 115.5915 0010430 199.5031 160.5798 15.05170130355310 S-Net C 1 43189U 18014K 24214.87121120 .00008003 00000-0 56459-3 0 9997 2 43189 97.5895 115.9438 0012431 192.1457 167.9472 15.05166592353929 Ten-Koh 1 43677U 18084G 24214.41646588 .00005540 00000-0 49320-3 0 9998 2 43677 98.0671 9.2995 0013285 225.2710 134.7430 14.96420502313486 PO-101 1 43678U 18084H 24214.90855006 .00002841 00000-0 26172-3 0 9991 2 43678 98.0756 14.2537 0008154 235.5035 124.5415 14.95536999313759 QO-100 1 43700U 18090A 24214.59869623 .00000134 00000-0 00000-0 0 9991 2 43700 0.0140 84.9055 0002392 90.9499 16.1308 1.00272295 20816 MinXSS-2 1 43758U 18099A 24214.77046707 .00015939 00000-0 97411-3 0 9997 2 43758 97.5523 276.4586 0017364 157.9184 202.2797 15.10222657309668 AO-95 1 43770U 18099N 24214.14688795 .00012647 00000-0 85350-3 0 9993 2 43770 97.5436 271.0514 0013206 201.6985 158.3684 15.06682161309339 RANGE-B 1 43772U 18099Q 24214.56729127 .00017864 00000-0 10625-2 0 9994 2 43772 97.5221 275.1090 0006600 113.0760 247.1167 15.11292103309572 RANGE-A 1 43773U 18099R 24214.78622876 .00006619 00000-0 49608-3 0 9992 2 43773 97.4978 266.5679 0013334 170.5690 189.5789 15.02937026309287 MOVE-II 1 43780U 18099Y 24214.67512302 .00030477 00000-0 14954-2 0 9994 2 43780 97.5189 277.3006 0007315 171.8609 188.2744 15.18020553309822 SNUSat 2 1 43782U 18099AA 24214.38777213 .00013798 00000-0 95360-3 0 9996 2 43782 97.5102 270.1909 0015561 145.3688 214.8555 15.05745977309373 SnugLite 1 43784U 18099AC 24214.70108252 .00011177 00000-0 74946-3 0 9991 2 43784 97.4931 269.8122 0005550 145.0436 215.1157 15.07007398309496 ITASat 1 1 43786U 18099AE 24214.14975555 .00010344 00000-0 73095-3 0 9998 2 43786 97.5084 270.1578 0016948 192.7747 167.3052 15.04969302309339 EAGLET 1 1 43790U 18099AJ 24214.44161142 .00007489 00000-0 55419-3 0 9991 2 43790 97.5264 270.9293 0013984 172.7622 187.3808 15.03369222309079 ESEO 1 43792U 18099AL 24214.84005863 .00004242 00000-0 34562-3 0 9994 2 43792 97.5181 267.8860 0011506 154.0097 206.1707 14.99962543309045 CSIM 1 43793U 18099AM 24214.53924920 .00030708 00000-0 15183-2 0 9998 2 43793 97.5276 278.9192 0013244 153.2174 206.9746 15.17698101309655 JO-97 1 43803U 18099AX 24214.15931939 .00015238 00000-0 98137-3 0 9998 2 43803 97.5184 271.8508 0011037 143.3095 216.8892 15.08387992309473 Suomi 100 1 43804U 18099AY 24214.56688241 .00012666 00000-0 83461-3 0 9995 2 43804 97.5255 272.0353 0016809 143.5197 216.7179 15.07521725309516 ISAT 1 43879U 18111D 24214.30542640 .00019863 00000-0 11640-2 0 9991 2 43879 97.6143 119.8213 0012294 194.4325 165.6555 15.11763162306234 UWE-4 1 43880U 18111E 24213.72568989 .00011882 00000-0 71957-3 0 9993 2 43880 97.6070 119.1483 0015234 208.1428 151.8979 15.10656089306157 Sparrow 1 43881U 18111F 24214.26092413 .00019956 00000-0 11529-2 0 9996 2 43881 97.6236 121.7662 0007945 235.7668 124.2810 15.12314282306293 Prox-1 1 44339U 19036A 24214.53635478 .00014474 00000-0 24319-2 0 9997 2 44339 23.9997 293.4433 0009198 140.7371 219.3792 14.67959925271912 SONATE 1 44400U 19038Q 24214.50194225 .00027752 00000-0 77978-3 0 9998 2 44400 97.7127 210.6954 0012453 308.5530 51.4597 15.36419369281035 Taurus 1 1 44530U 19059C 24214.87700305 .00010174 00000-0 23128-2 0 9994 2 44530 98.5791 336.2855 0010487 270.7656 89.2339 14.56120109258415 Duchifat 3 1 44854U 19089C 24214.86230223 .00022027 00000-0 10575-2 0 9994 2 44854 36.9554 131.3499 0003199 136.5151 223.5849 15.18111818255148 TO-108 1 44881U 19093C 24214.82872926 .00001803 00000-0 22298-3 0 9992 2 44881 97.8267 290.7324 0014643 168.2102 191.9458 14.83919375249812 FloripaSat 1 1 44885U 19093G 24214.79705372 .00008258 00000-0 84094-3 0 9995 2 44885 97.8407 297.0405 0013095 159.5249 200.6496 14.90910698250164 RS-44 1 44909U 19096E 24214.53459810 .00000055 00000-0 18387-3 0 9999 2 44909 82.5187 74.6418 0216640 305.3897 52.7134 12.79732443214778 BY70-2 1 45857U 20042B 24214.86292983 .00497960 00000-0 72901-2 0 9993 2 45857 97.8986 312.0833 0006751 269.8602 90.1877 15.53818480221583 UPMSat 2 1 46276U 20061E 24214.53967272 .00023670 00000-0 68133-3 0 9990 2 46276 97.2950 280.3062 0000832 66.7283 293.4049 15.35766882217131 AmicalSat 1 46287U 20061R 24214.75244565 .00050369 00000-0 12186-2 0 9990 2 46287 97.3461 282.1363 0002231 96.9175 263.2325 15.40963827216578 SALSAT 1 46495U 20068K 24214.89185159 .00009454 00000-0 52440-3 0 9993 2 46495 97.8184 175.3641 0014797 150.0363 210.1718 15.13901134211226 UVSQ-SAT 1 47438U 21006AB 24214.71485034 .00094167 00000-0 14189-2 0 9992 2 47438 97.3218 276.0062 0004087 66.1641 294.0041 15.54463088195799 YUSAT 1 1 47439U 21006AC 24212.31848082 .15388100 25106-5 32639-3 0 9992 2 47439 97.2965 280.7472 0016137 257.6102 102.3395 16.45450048195890 SOMP 2b 1 47445U 21006AJ 24214.56371871 .00075420 00000-0 13287-2 0 9995 2 47445 97.3184 273.8791 0005646 74.0762 286.1112 15.50154372195674 IDEASSat 1 47458U 21006AX 24214.56642136 .00062614 00000-0 12505-2 0 9997 2 47458 97.3299 274.2630 0006056 74.4484 285.7434 15.46594672195592 CubeSX-Sirius-HSE 1 47951U 21022V 24214.85734259 .00028973 00000-0 10622-2 0 9991 2 47951 97.4547 113.1604 0012259 347.7157 12.3782 15.27874853185549 CubeSX-HSE 1 47952U 21022W 24214.87271481 .00028851 00000-0 10539-2 0 9999 2 47952 97.4548 113.2761 0012161 346.7298 13.3620 15.27997103185550 KSU-Cubesat 1 47954U 21022Y 24214.70034830 .00038128 00000-0 12501-2 0 9997 2 47954 97.4556 114.6500 0010529 343.5653 16.5245 15.31474268185345 GRBAlpha 1 47959U 21022AD 24214.83420006 .00028631 00000-0 10430-2 0 9997 2 47959 97.4548 113.3951 0012016 347.2235 12.8698 15.28090235184374 Orbicraft-Zorkiy 1 47960U 21022AE 24214.89565218 .00033955 00000-0 11518-2 0 9993 2 47960 97.4591 114.9101 0010731 345.3547 14.7381 15.30397857185144 STECCO 1 47962U 21022AG 24214.68844739 .00618023 00000-0 25654-2 0 9991 2 47962 97.4465 127.2141 0008002 153.1583 207.0102 15.84215284185263 TUBIN 1 48900U 21059X 24214.87313523 .00021959 00000-0 71405-3 0 9999 2 48900 97.6503 0.9073 0005816 283.8995 76.1599 15.31898149171911 LEDSAT 1 49069U 21073D 24214.70381910 .00024363 00000-0 92521-3 0 9993 2 49069 97.4356 285.5785 0019774 123.2218 237.0920 15.26630577163398 CUTE 1 49263U 21088D 24214.14122574 .00031301 00000-0 13816-2 0 9991 2 49263 97.4946 279.8896 0012036 281.9447 78.0440 15.21631011156478 TeikyoSat 4 1 49396U 21102B 24214.27134590 .00005008 00000-0 35943-3 0 9991 2 49396 97.4576 257.6910 0014566 120.4148 239.8520 15.04670779149530 Z-Sat 1 49399U 21102E 24214.90394210 .00006064 00000-0 38572-3 0 9995 2 49399 97.4287 259.9687 0021923 100.9596 259.4101 15.08962036149888 KOSEN 1 1 49402U 21102H 24214.71711837 .00009095 00000-0 52718-3 0 9992 2 49402 97.4214 261.3968 0020301 86.1255 274.2296 15.12231129150023 HO-113 1 50466U 21131B 24214.85581677 .00001034 00000-0 34413-3 0 9995 2 50466 98.5279 299.7142 0003984 7.2484 352.8761 14.39762839136572 Tevel-3 1 50988U 22002E 24214.46855397 .02456360 91802-2 22349-2 0 9996 2 50988 97.3497 293.6456 0013169 259.5628 100.4175 16.14716927142215 Tevel-8 1 50989U 22002F 24214.83398558 .02367168 75494-2 21499-2 0 9990 2 50989 97.3583 294.1300 0013967 260.0598 99.9112 16.14298925142266 Tevel-1 1 51013U 22002AF 24214.82982221 .02234616 57484-2 20998-2 0 9997 2 51013 97.3607 293.8503 0014142 259.2318 100.7375 16.13330161142269 IRIS-A 1 51044U 22002BN 24214.43134033 .00038762 00000-0 11858-2 0 9995 2 51044 97.3820 280.8383 0005445 217.6225 142.4637 15.33727355141352 Tevel-7 1 51062U 22002CG 24214.73828389 .03046478 23961-5 19483-2 0 9996 2 51062 97.3557 294.0385 0013891 262.4974 97.4736 16.17313079142257 Tevel-4 1 51063U 22002CH 24214.83705850 .01786717 24814-2 21121-2 0 9997 2 51063 97.3623 293.9025 0013499 256.4903 103.4876 16.09005987142250 Tevel-2 1 51069U 22002CP 24214.77400167 .02922843 23891-5 19677-2 0 9992 2 51069 97.3502 293.9589 0013997 261.2237 98.7465 16.16605723142267 OreSat0 1 52017U 22026K 24214.49976183 .00139881 00000-0 15448-2 0 9991 2 52017 97.4898 231.1088 0010586 73.3571 286.8848 15.62535559132760 Planetum 1 1 52738U 22057G 24214.31896807 .00066195 00000-0 13455-2 0 9993 2 52738 97.5687 342.2453 0004064 335.3517 24.7537 15.46075038121532 Foresail-1 1 52766U 22057AL 24214.88129750 .00027513 00000-0 83209-3 0 9998 2 52766 97.5862 341.5443 0008363 330.9968 29.0809 15.34146694121451 SNUGLITE 2 1 52899U 22065F 24214.87505489 .00002413 00000-0 50078-3 0 9990 2 52899 98.1249 355.1543 0007896 19.5621 340.5882 14.61038583110931 IO-117 1 53106U 22080B 24214.10458479 -.00000003 00000-0 00000-0 0 9992 2 53106 70.1369 176.9169 0007576 97.1713 262.9808 6.42557460 48157 SelfieSat 1 53951U 22057BC 24214.84369905 .00231312 00000-0 19937-2 0 9999 2 53951 97.5669 347.8992 0006214 290.3463 69.7130 15.68539482121910 FO-118 1 54684U 22167C 24214.86804266 .00038930 00000-0 12109-2 0 9996 2 54684 97.6089 0.8861 0009004 344.1230 15.9728 15.33174304 91295 SSS-2B 1 56184U 23054G 24214.81243552 .00054780 00000-0 11576-2 0 9997 2 56184 97.3628 113.2995 0006635 39.2164 320.9564 15.44969960 73176 CIRBE 1 56188U 23054L 24214.68265642 .00125670 00000-0 14782-2 0 9999 2 56188 97.3541 115.9841 0003712 74.4427 285.7240 15.61000842 73363 INSPIRE-Sat 7 1 56211U 23054AK 24214.52606539 .00168702 00000-0 16903-2 0 9993 2 56211 97.3549 117.2900 0002534 48.7157 311.4321 15.64993029 73429 RoseyCubesat 1 1 56212U 23054AL 24214.53745847 .00212517 00000-0 14753-2 0 9996 2 56212 97.3552 118.5445 0002623 94.1054 266.0510 15.73808381 73502 SO-120 1 56992U 23084BU 24214.78329384 .00043871 00000-0 14430-2 0 9992 2 56992 97.5343 334.7425 0011848 221.4163 138.6181 15.31324298 63154 MRC-100 1 56993U 23084BV 24214.87955620 .00054367 00000-0 16407-2 0 9999 2 56993 97.5341 335.4062 0011214 220.6892 139.3513 15.34030224 63215 UmKA 1 (RS40S) 1 57172U 23091G 24214.85458656 .00007257 00000-0 47162-3 0 9991 2 57172 97.6091 266.4498 0015413 330.3265 29.7088 15.08220629 60376 CubeBel-2 (EU11S) 1 57175U 23091K 24214.84762323 .00010361 00000-0 65559-3 0 9992 2 57175 97.6088 266.4471 0013959 342.7156 17.3595 15.09107564 60374 VERONIKA 1 58261U 23174F 24214.81921317 .00027268 00000-0 11512-2 0 9991 2 58261 97.4590 289.2370 0012588 87.4063 272.8615 15.23168784 40652 KAFASAT 1 58317U 23174BP 24214.85993662 .00034242 00000-0 12870-2 0 9997 2 58317 97.4534 290.0602 0010733 65.8129 294.4231 15.27033252 40720 ENSO 1 58470U 23185J 24214.89717677 .00023467 00000-0 93891-3 0 9993 2 58470 97.4243 281.1827 0013537 118.3802 241.8803 15.24998551 37102 EIRSAT-1 1 58472U 23185L 24214.85093362 .00027157 00000-0 10613-2 0 9999 2 58472 97.4239 281.2207 0013096 119.6574 240.5970 15.25759656 37105 SO-121 1 58567U 23174CY 24214.70123650 .00083909 00000-0 24075-2 0 9994 2 58567 97.4508 290.7371 0009430 75.6580 284.5709 15.35504849 40757 SONATE-2 1 59112U 24043Q 24214.88195716 .00016495 00000-0 77025-3 0 9998 2 59112 97.4828 338.2727 0015511 133.0658 227.1878 15.19788769 22740 KASHIWA 1 59508U 98067WH 24214.85290321 .00746568 24808-3 18805-2 0 9995 2 59508 51.6211 75.4968 0008825 219.2787 140.7581 15.94959417 17708 MESAT1 1 60209U 24125G 24214.86089997 .00016165 00000-0 75002-3 0 9996 2 60209 97.3200 66.8859 0027158 160.7785 199.4481 15.19782011 4352 GRBBeta 1 60237U 24128C 24214.57412739 .00005375 00000-0 48014-3 0 9996 2 60237 61.9949 83.0393 0010920 298.6183 61.3806 14.97042773 3396 ROBUSTA-3A 1 60243U 24128J 24214.59149051 .00007948 00000-0 72100-3 0 9990 2 60243 61.9925 83.1098 0012737 270.1754 89.7874 14.95958145 3405 CatSat 1 60246U 24125J 24214.67696125 .00012687 00000-0 57892-3 0 9995 2 60246 97.3022 68.0263 0054200 116.5062 244.1745 15.19405794 2442 /EX